Погода в Заречном

Россия / Свердловская область     56°48′53″N   61°19′14″E
темп.,
°C
ветер,
м/с
пор.,
м/с
влажн.,
%
обл.,
%
осадки,
мм/ч
давл.,
гПа
погр.,
м
6 марта, сб
сб623:00−9зсз41190100 0.0 1001510
02:00−12зсз5139049 0.0 1003487
05:00−13з4119124 0.0 1006316
08:00−14зюз411900 0.0 1007324
11:00−9з511830 0.0 1007812
14:00−7з6117696 0.1 10081648
17:00−7з5107998 0.2 10081442
20:00−12зюз369375 0.0 1009122
7 марта, вс
вс723:00−15зсз239667 0.1 101142
02:00−18з239518 0.0 101149
05:00−20з23959 0.0 101234
08:00−20з22960 0.0 101220
11:00−13зюз12860 0.0 1011290
14:00−10з128067 0.0 1010689
17:00−11ююв018484 0.1 1008372
20:00−16зсз129366 0.0 100920
8 марта, пн
пн823:00−18сз239743 0.0 100931
02:00−19зсз339880 0.0 100955
05:00−21з339640 0.0 101081
08:00−22з23960 0.0 101049
11:00−14ююз238710 0.0 1009258
14:00−11ююв4790100 0.0 1007450
17:00−10ююв5992100 0.1 1005528
20:00−10ю4109397 0.1 1005304
9 марта, вт
вт923:00−11ююз389477 0.1 1005152
02:00−11ю389167 0.0 1004185
05:00−8ю6139483 0.3 1001528
08:00−6ююз61486100 0.1 998993
11:00−5зюз7127681 0.1 10001306
14:00−4юз697493 0.1 10011367
17:00−5зюз497896 0.2 10021150
20:00−9з4118887 0.1 1004369
10 марта, ср
ср1023:00−13з369343 0.1 1007123
02:00−15зюз239544 0.0 100841
05:00−17зюз239522 0.0 100925
08:00−16зюз249497 0.0 100987
11:00−11зюз249198 0.1 1008390
14:00−9юз2385100 0.3 1008679
17:00−9зюз3487100 0.6 1006650
20:00−13з3693100 0.1 1007115